TimeMST,TemperatureF,Dew PointF,Humidity,Sea Level PressureIn,VisibilityMPH,Wind Direction,Wind SpeedMPH,Gust SpeedMPH,PrecipitationIn,Events,Conditions,WindDirDegrees,DateUTC
12:53 AM,17.1,10.9,77,30.24,10.0,East,6.9,-,N/A,,Clear,80,2013-03-06 07:53:00
1:53 AM,16.0,12.0,84,30.22,10.0,ENE,5.8,-,N/A,,Clear,60,2013-03-06 08:53:00
2:53 AM,16.0,10.9,81,30.20,10.0,ENE,4.6,-,N/A,,Clear,70,2013-03-06 09:53:00
3:53 AM,16.0,10.9,81,30.19,10.0,ENE,6.9,-,N/A,,Clear,60,2013-03-06 10:53:00
4:53 AM,15.1,10.9,84,30.19,10.0,NE,8.1,-,N/A,,Clear,50,2013-03-06 11:53:00
5:53 AM,15.1,10.9,84,30.18,10.0,ENE,4.6,-,N/A,,Clear,70,2013-03-06 12:53:00
6:53 AM,15.1,10.9,84,30.17,10.0,East,6.9,-,N/A,,Clear,80,2013-03-06 13:53:00
7:53 AM,18.0,12.0,78,30.15,10.0,ESE,6.9,-,N/A,,Clear,120,2013-03-06 14:53:00
8:53 AM,21.0,14.0,74,30.14,10.0,ESE,6.9,-,N/A,,Clear,120,2013-03-06 15:53:00
9:53 AM,24.1,16.0,71,30.10,10.0,SE,11.5,-,N/A,,Clear,140,2013-03-06 16:53:00
10:53 AM,27.0,17.1,66,30.06,10.0,SE,13.8,-,N/A,,Clear,140,2013-03-06 17:53:00
11:53 AM,30.0,19.9,66,30.02,10.0,SE,11.5,-,N/A,,Clear,130,2013-03-06 18:53:00
12:53 PM,30.0,21.0,69,29.97,10.0,SE,12.7,-,N/A,,Clear,130,2013-03-06 19:53:00
1:53 PM,32.0,21.9,66,29.94,10.0,ESE,12.7,-,N/A,,Clear,110,2013-03-06 20:53:00
2:53 PM,33.1,23.0,66,29.91,10.0,ESE,15.0,-,N/A,,Clear,110,2013-03-06 21:53:00
3:53 PM,33.1,24.1,70,29.90,10.0,ESE,11.5,-,N/A,,Clear,110,2013-03-06 22:53:00
4:53 PM,33.1,25.0,72,29.88,10.0,East,11.5,-,N/A,,Partly Cloudy,80,2013-03-06 23:53:00
5:53 PM,30.9,24.1,76,29.87,10.0,ENE,10.4,-,N/A,,Mostly Cloudy,70,2013-03-07 00:53:00
6:53 PM,30.0,24.1,79,29.88,10.0,NE,9.2,-,N/A,,Mostly Cloudy,50,2013-03-07 01:53:00
7:53 PM,28.0,24.1,85,29.89,10.0,North,10.4,-,N/A,,Mostly Cloudy,10,2013-03-07 02:53:00
8:53 PM,28.0,23.0,81,29.86,10.0,NE,15.0,-,N/A,,Clear,50,2013-03-07 03:53:00
9:53 PM,26.1,23.0,88,29.87,10.0,NNE,9.2,-,N/A,,Scattered Clouds,20,2013-03-07 04:53:00
10:53 PM,26.1,21.9,84,29.85,10.0,NNE,8.1,-,N/A,,Clear,30,2013-03-07 05:53:00
11:53 PM,25.0,21.0,85,29.85,10.0,NE,8.1,-,N/A,,Clear,40,2013-03-07 06:53:00